BEIDOU 11 (C05)

Last updated on Dec. 12, 2019, 4:25 a.m. UTC

1 38091U 12008A   19345.12799449  .00000076  00000-0  00000+0 0  9991
2 38091   1.7621  68.3411 0006363 268.4839 207.5355  1.00274415 28619
UTC
Height (km)
Latitude
Longitude
Inclination
Orbital Period
UTC large
Height (km)
Speed (km/s)
/
Latitude / Longitude
Inclination (degrees)
Orbital Period (minutes)
Azimuth
Elevation
Range (km)
Doppler Factor
iOS Compass Heading
iOS Angle

Next 30 passes for location: Hong Kong

Rise time Rise Azimuth (degrees) Set time Set Azimuth (degrees) Duration Max altitude (degrees)

No matching passes for this satellites